Погода в Дзинаге

Россия / Республика Северная Осетия — Алания     42°53′50″N   43°42′10″E
темп.,
°C
ветер,
м/с
пор.,
м/с
влажн.,
%
обл.,
%
осадки,
мм/ч
давл.,
гПа
погр.,
м
18 апреля, вс
вс1800:00+3ююз3496100 0.0 1020134
03:00+3ююз3492100 0.0 1019112
06:00+3юз3489100 0.6 1019103
09:00+7ююз358060 0.8 1016372
12:00+9юз347537 0.1 1016402
15:00+8юз138485 1.2 1017451
18:00+6ююз1193100 1.0 1019156
21:00+5юз4585100 1.3 1019122
19 апреля, пн
пн1900:00+4ююз4683100 0.0 1019109
03:00+4юз4582100 0.0 101989
06:00+5юз458267 0.0 1018117
09:00+9юз1270100 0.0 1017734
12:00+8ююз2379100 0.1 1017700
15:00+10ююз237453 0.2 1016645
18:00+8юз248143 0.1 1016246
21:00+5юз348582 0.1 101868
20 апреля, вт
вт2000:00+5ююз568399 0.0 1016128
03:00+6ююз6876100 0.0 1015142
06:00+8ююз786999 0.0 1012134
09:00+14ююз5752100 0.0 1010648
12:00+15ююз6851100 0.0 1009960
15:00+14ююз5655100 0.5 1008864
18:00+8ююз6983100 4.9 1010330
21:00+7юз7876100 6.0 1012113
21 апреля, ср
ср2100:00+6ююз4586100 1.1 101393
03:00+4ю139658 1.3 1015128
06:00+4юв129659 0.1 1017197
09:00+5всв229177 0.2 1017288
12:00+6всв238964 1.2 1017361
15:00+5св228963 2.0 1017268
18:00+3св219897 0.1 1020145
21:00+2всв119897 0.3 1021120
22 апреля, чт
чт2200:00+3вюв0298100 0.3 1020163
03:00+3в0299100 4.7 1019151
06:00+3св1199100 2.4 1020180
09:00+2св0298100 7.3 1021213
12:00+3всв0298100 3.6 1021215
15:00+4св128961 4.0 1021344
18:00+3св1195100 0.5 1022139
21:00+2св1199100 0.7 102392